TimeMST,TemperatureF,Dew PointF,Humidity,Sea Level PressureIn,VisibilityMPH,Wind Direction,Wind SpeedMPH,Gust SpeedMPH,PrecipitationIn,Events,Conditions,WindDirDegrees,DateUTC
12:53 AM,32.0,19.0,59,29.91,10.0,Calm,Calm,-,N/A,,Clear,0,2014-01-12 07:53:00
1:53 AM,23.0,14.0,68,29.93,10.0,NE,4.6,-,N/A,,Clear,40,2014-01-12 08:53:00
2:53 AM,23.0,15.1,72,29.94,10.0,NE,3.5,-,N/A,,Clear,50,2014-01-12 09:53:00
3:53 AM,33.1,19.0,56,29.86,10.0,SW,9.2,-,N/A,,Clear,220,2014-01-12 10:53:00
4:53 AM,32.0,18.0,56,29.89,10.0,Calm,Calm,-,N/A,,Clear,0,2014-01-12 11:53:00
5:53 AM,35.1,19.0,52,29.90,10.0,WNW,5.8,-,N/A,,Clear,300,2014-01-12 12:53:00
6:53 AM,37.0,19.9,50,29.94,10.0,SW,9.2,-,N/A,,Clear,220,2014-01-12 13:53:00
7:53 AM,37.9,19.9,48,29.94,10.0,SW,17.3,-,N/A,,Clear,220,2014-01-12 14:53:00
8:53 AM,39.9,19.9,45,29.99,10.0,SW,17.3,-,N/A,,Clear,230,2014-01-12 15:53:00
9:53 AM,44.1,21.0,40,30.04,10.0,WSW,17.3,27.6,N/A,,Clear,250,2014-01-12 16:53:00
10:53 AM,48.0,19.9,33,29.96,10.0,West,23.0,-,N/A,,Clear,270,2014-01-12 17:53:00
11:53 AM,50.0,17.1,27,29.90,10.0,WNW,24.2,32.2,N/A,,Clear,290,2014-01-12 18:53:00
12:53 PM,50.0,12.0,22,29.90,10.0,WNW,31.1,36.8,N/A,,Clear,290,2014-01-12 19:53:00
1:53 PM,48.9,10.9,22,29.97,10.0,West,25.3,35.7,N/A,,Clear,280,2014-01-12 20:53:00
2:53 PM,48.0,10.9,22,30.00,10.0,West,24.2,34.5,N/A,,Clear,280,2014-01-12 21:53:00
3:53 PM,45.0,12.9,27,29.99,10.0,NW,18.4,27.6,N/A,,Clear,320,2014-01-12 22:53:00
4:53 PM,41.0,15.1,35,30.05,10.0,NW,13.8,-,N/A,,Clear,310,2014-01-12 23:53:00
5:53 PM,37.0,12.9,37,30.11,10.0,NW,9.2,-,N/A,,Clear,310,2014-01-13 00:53:00
6:53 PM,34.0,10.0,37,30.15,10.0,NW,8.1,-,N/A,,Clear,320,2014-01-13 01:53:00
7:53 PM,28.0,6.1,39,30.21,10.0,Calm,Calm,-,N/A,,Clear,0,2014-01-13 02:53:00
8:53 PM,24.1,5.0,44,30.25,10.0,Calm,Calm,-,N/A,,Clear,0,2014-01-13 03:53:00
9:53 PM,21.9,6.1,51,30.28,10.0,Calm,Calm,-,N/A,,Clear,0,2014-01-13 04:53:00
10:53 PM,19.0,3.0,50,30.29,10.0,Calm,Calm,-,N/A,,Clear,0,2014-01-13 05:53:00
11:53 PM,18.0,1.9,50,30.29,10.0,West,3.5,-,N/A,,Clear,280,2014-01-13 06:53:00